Voltar ao catálogo

STARLINK-3226

AtivoComunicaçõesVLEO
NORAD 49740·PAYLOAD·🇺🇸 United States

Lançado Dec 2, 2021 de Cape Canaveral Space Force Station

Loading…

Próximas Passagens (próximas 24 horas)

TLE

AtualizadoSource: CelesTrak SupGP

Época: Sep 14, 2026, 12:44 UTC

1 49740C 21115S   26257.53104167 -.00022046  00000+0 -70972-3 0  2573
2 49740  53.1598   7.5512 0001260  88.0531 162.9718 15.31677150    12

Acompanhe STARLINK-3226 em tempo real com AllMySat

Download on the App Store